Regional Weather Roundup
Issued by NWS

Home | Current Version | Previous Version | Text Only | Print | Product List | Glossary Off
Versions: 1 2 3 4 5 6 7 8 9 10 11 12 13 14 15 16 17 18 19 20 21 22 23 24 25 26 27 28 29 30 31 32 33 34 35 36 37 38 39 40 41 42 43 44 45 46 47 48 49 50

000
ASUS43 KLSX 260557
RWRMO

WEATHER SUMMARY FOR MISSOURI
NATIONAL WEATHER SERVICE SPRINGFIELD MO
100 AM CDT FRI AUG 26 2016

NOTE: "FAIR" INDICATES FEW OR NO CLOUDS BELOW 12,000 FEET WITH NO
       SIGNIFICANT WEATHER AND/OR OBSTRUCTIONS TO VISIBILITY.
       CURRENT SKY AND/OR WEATHER CONDITIONS ARE NOT AVAILABLE FOR
       CHILLICOTHE AND FARMINGTON.

MOZ001>031-035>038-043-044-053-054-260700-
...NORTHERN AND WESTERN MISSOURI...

CITY           SKY/WX    TMP DP  RH WIND       PRES   REMARKS
KANSAS CTY INT MOCLDY    70  63  78 NE9       30.10F
6HR MIN TEMP:  70; 6HR MAX TEMP:  76;

LEE`S SUMMIT   TSTM      72  70  93 CALM      30.12R
6HR MIN TEMP:  72; 6HR MAX TEMP:  79; 6HR PCP:  0.01;

ST JOSEPH      MOCLDY    67  63  87 N6        30.11F FOG
6HR MIN TEMP:  66; 6HR MAX TEMP:  77;


$$
MOZ066>068-077>081-088>096-101>105-260700-
...SOUTHWEST MISSOURI...

CITY           SKY/WX    TMP DP  RH WIND       PRES   REMARKS
SPRINGFIELD    FAIR      73  67  81 S5        30.09F
6HR MIN TEMP:  72; 6HR MAX TEMP:  87;

JOPLIN         FAIR      71  67  87 SE5       30.08S
6HR MIN TEMP:  69; 6HR MAX TEMP:  75; 6HR PCP:  0.06;


$$
MOZ032>034-039>042-045>050-055>058-069>072-260700-
...CENTRAL MISSOURI...

CITY           SKY/WX    TMP DP  RH WIND       PRES   REMARKS
COLUMBIA       NOT AVBL
JEFFERSON CITY FAIR      75  72  90 CALM      30.07F
6HR MIN TEMP:  74; 6HR MAX TEMP:  81;

ROLLA          FAIR      71  69  93 SE3       30.09F
6HR MIN TEMP:  71; 6HR MAX TEMP:  77; 6HR PCP: TRACE;

SEDALIA        FAIR      73  70  90 N9        30.07F
6HR MIN TEMP:  73; 6HR MAX TEMP:  80; 6HR PCP:  0.02;


$$
MOZ051-052-059>065-260700-
...EAST CENTRAL MISSOURI...

CITY           SKY/WX    TMP DP  RH WIND       PRES   REMARKS
ST LOUIS INTL  MOCLDY    77  69  76 E3        30.08F
6HR MIN TEMP:  77; 6HR MAX TEMP:  90;


$$
MOZ072>076-082>087-097>100-106>115-260700-
...SOUTH CENTRAL AND SOUTHEAST MISSOURI...

CITY           SKY/WX    TMP DP  RH WIND       PRES   REMARKS
CAPE GIRARDEAU FAIR      74  72  93 CALM      30.08R
6HR MIN TEMP:  74; 6HR MAX TEMP:  85;

POPLAR BLUFF   FAIR      78  75  90 CALM      30.07S
6HR MIN TEMP:  78; 6HR MAX TEMP:  85;

WEST PLAINS    FAIR      78  71  79 W6        30.12F
6HR MIN TEMP:  77; 6HR MAX TEMP:  83;


$$



USA.gov is the U.S. government's official web portal to all federal, state and local government web resources and services.